Regional Weather Roundup
Issued by NWS

Home | Current Version | Previous Version | Graphics & Text | Print | Product List | Glossary On
Versions: 1 2 3 4 5 6 7 8 9 10 11 12 13 14 15 16 17 18 19 20 21 22 23 24 25 26 27 28 29 30 31 32 33 34 35 36 37 38 39 40 41 42 43 44 45 46 47 48 49 50
000
ASUS45 KBOU 200510
RWRCO

WEATHER ROUNDUP FOR COLORADO
NATIONAL WEATHER SERVICE DENVER/BOULDER CO
1000 PM MST MON FEB 19 2018

NOTE: "FAIR" INDICATES FEW OR NO CLOUDS BELOW 12000 FEET WITH NO
SIGNIFICANT WEATHER AND/OR OBSTRUCTIONS TO VISIBILITY.

COZ001>005-013-030-031-200600-
...NORTHWEST COLORADO...

CITY           SKY/WX    TMP DP  RH WIND       PRES   REMARKS
CRAIG          LGT SNOW   3  -3  76 SW10      29.69R WCI -12
HAYDEN         LGT SNOW   1  -2  85 W6        29.66R VSB 1   WCI -10
MEEKER         LGT SNOW   5   0  79 NE6       29.65R VSB 1   WCI  -6
RANGELY        LGT SNOW   7   1  76 E13       29.74R WCI  -9
RABBIT EARS PA LGT SNOW  -6 -11  77 MISG      29.35R VSB 3/4
STEAMBOAT SPGS CLOUDY     2  -2  83 CALM      29.62R
WALDEN         FAIR      -4 -11  71 N23G30    29.46R WCI -29
$$

COZ006>008-011-200600-
...WEST CENTRAL VALLEYS...

CITY           SKY/WX    TMP DP  RH WIND       PRES   REMARKS
GRAND JUNCTION LGT SNOW  26  25  96 W13       29.63R FOG     WCI  15
MONTROSE       FAIR      29  15  56 SW9       29.62R WCI  20
EAGLE            N/A    N/A N/A N/A MISG        N/A
RIFLE          MIX PCPN  15  13  91 NW14G23   29.62R VSB 1/2 WCI   0
DELTA          FAIR      31  19  58 W3        29.59R
NUCLA          CLOUDY    27  19  74 SW7       29.66R WCI  19
$$

COZ017>023-064>068-200600-
...SOUTHWEST COLORADO...

CITY           SKY/WX    TMP DP  RH WIND       PRES   REMARKS
DURANGO        CLOUDY    24  22  91 SW14      29.67R WCI  12
CORTEZ         CLOUDY    25  19  78 S17       29.69R WCI  12
PAGOSA SPRINGS LGT SNOW  23  20  88 SW9G24    29.66R WCI  13
TELLURIDE      LGT SNOW  18   6  60 SW21G38   29.56S WCI   1
WOLF CREEK PAS CLOUDY     5   3  92 SW31      29.47S WCI -19
$$

COZ009-010-012-014-032>034-037-058>063-200600-
...CENTRAL COLORADO...

CITY           SKY/WX    TMP DP  RH WIND       PRES   REMARKS
ASPEN          CLOUDY    24   9  52 S6G17     29.47R WCI  17
BUENA VISTA    CLOUDY    24  15  69 W8        29.47R WCI  15
COPPER MTN     MOCLDY    14   7  73 S39       29.40R WCI  -9
BERTHOUD PASS  LGT SNOW   5  -6  61 W21G36    29.35R VSB 1   WCI -16
COTTONWOOD PAS CLOUDY    21  19  93 NW6       29.44R WCI  14
GUNNISON       FLURRIES  22  12  65 SW9G21    29.55R WCI  12
GRANBY         CLOUDY    22  11  63 SW18G29   29.42S WCI   8
KREMMLING      MOCLDY    30  12  47 SW25G35   29.44S WCI  16
LEADVILLE      SNOW      14  12  92 SW8       29.43R VSB 1/2 WCI   3
MONARCH PASS   HVY SNOW   9   3  78 MISG      29.50S VSB 1/4
SALIDA         CLOUDY    28  20  73 SW8       29.57R WCI  19
SUNLIGHT       LGT SNOW   9   5  85 SW14G29   29.44R WCI  -8
WILKERSON PASS SNOW      14  10  85 SW17      29.42S VSB 1/2 WCI  -3
$$

COZ069>075-200600-
...SAN LUIS VALLEY/SANGRE DE CRISTO MOUNTAINS...

CITY           SKY/WX    TMP DP  RH WIND       PRES   REMARKS
ALAMOSA        MOCLDY    27  22  81 S9        29.56R WCI  18
DEL NORTE      FLURRIES  24  18  77 SW17G24   29.55R WCI  10
LA VETA PASS   HVY SNOW  21  19  93 S29G46    29.61R VSB<1/4 WCI   3
SAGUACHE       LGT SNOW  27  23  86 NW13G18   29.52R WCI  16
$$

COZ035-036-038>040-200600-
...NORTHERN COLORADO FRONT RANGE...

CITY           SKY/WX    TMP DP  RH WIND       PRES   REMARKS
DENVER INTL AP LGT SNOW   6   2  83 NE12      29.70R FOG     WCI  -9
AURORA         LGT SNOW   6   3  87 NE3       29.70R FOG
FRONT RANGE AP LGT SNOW   8   4  85 NE9       29.68S WCI  -5
ERIE MUNI ARPT LGT SNOW   7   4  86 NE6       29.79R WCI  -3
BOULDER MUN AP LGT SNOW   9   5  85 NE6       29.73R WCI  -1
CENTENNIAL     SNOW       7   5  91 E5        29.66R VSB 1/2 WCI  -2
BROOMFIELD     SNOW       9   5  85 MISG      29.70R VSB 1/2
FORT COLLINS   LGT SNOW   3   0  85 NE6       29.79R FOG     WCI  -8
LONGMONT       LGT SNOW   9   4  80 NE10      29.78R WCI  -6
$$

COZ041-046-047-076>085-087-088-200600-
...PIKES PEAK/PALMER DIVIDE AND SOUTHERN FOOTHILLS...

CITY           SKY/WX    TMP DP  RH WIND       PRES   REMARKS
COLO. SPRINGS  LGT SNOW  14  11  87 NE12      29.59R VSB 3/4 WCI   0
A. F. ACADEMY  CLOUDY     9   5  85 N10       29.59R BLWGSNOWWCI  -6
SCHRIEVER AFB  NOT AVBL
CHEYENNE MTN   HVY SNOW  11   9  91 N10       29.50R VSB 1/4 WCI  -3
ELLICOTT       LGT SNOW N/A N/A N/A N17         N/A
FALCON         SNOW       6   3  86 MISG      29.57R VSB 1/2
FORT CARSON    LGT SNOW  18  14  86 NE12      29.61R FOG     WCI   5
LIMON          FLURRIES   8   4  83 N14       29.67R WCI  -8
MONUMENT HILL  LGT SNOW   1   0  92 NE3       29.59R VSB 1
CANON CITY     SNOW      21  19  93 S3        29.61R VSB 1/2
WALSENBURG     NOT AVBL
TRINIDAD       CLOUDY    23  19  85 N9        29.54R WCI  13
$$

COZ042>045-048>051-090-091-200600-
...NORTHEAST COLORADO...

CITY           SKY/WX    TMP DP  RH WIND       PRES   REMARKS
GREELEY ARPT   LGT SNOW   4   0  83 N7        29.81R FOG     WCI  -8
AKRON          CLOUDY     4   1  88 N16       29.74R WCI -15
BURLINGTON     LGT SNOW  10   7  87 N14       29.73S FOG     WCI  -6
WRAY           LGT SNOW  10   7  85 N10       29.82R WCI  -3
YUMA           NOT AVBL
STERLING       LGT SNOW   7   1  78 N9        29.81S WCI  -7
HOLYOKE        LGT SNOW  10   5  79 N17       29.82R WCI  -7
FORT MORGAN    CLOUDY     5  -1  77 NE14      29.76F WCI -12
$$

COZ086-089-092>099-200600-
...SOUTHEAST COLORADO...

CITY           SKY/WX    TMP DP  RH WIND       PRES   REMARKS
PUEBLO         LGT SNOW  21  16  81 NE10      29.66R WCI  10
LA JUNTA       FLURRIES  20  14  77 E20G28    29.64R WCI   4
LAMAR          FLURRIES  19  11  70 E16G24    29.66S WCI   4
SPRINGFIELD      N/A     20  16  84 NE14      29.61R WCI   7
$$



USA.gov is the U.S. government's official web portal to all federal, state and local government web resources and services.